Weather History for Logan, UT

Change the Weather History Date:

Friday, January 4, 2013

  Actual Average Record
Temperature  
Mean Temperature -6 °F -  
Max Temperature 1 °F 25 °F 48 °F (2008)
Min Temperature -14 °F 6 °F -19 °F (1974)
Degree Days  
Heating Degree Days 72    
Moisture  
Dew Point -13 °F    
Average Humidity 77    
Maximum Humidity 92    
Minimum Humidity 66    
Precipitation  
Precipitation 0.00 in - - ()
Sea Level Pressure  
Sea Level Pressure 30.55 in    
Wind  
Wind Speed 1 mph (NW)    
Max Wind Speed 6 mph    
Max Gust Speed -    
Visibility 2 miles    
Events Fog , Snow    
Averages and records for this station are not official NWS values.
T = Trace of Precipitation, MM = Missing Value Source: NWS Daily Summary

Daily Weather History Graph

Daily Weather History Graph

Search for Another Location

Airport:

Trip Planner

Search our weather history database for the weather conditions in past years. The results will help you decide how hot, cold, wet, or windy it might be!

Date:

Astronomy

Jan. 04, 2013 Rise Set
Actual Time 7:54 AM MST 5:10 PM MST
Civil Twilight 7:23 AM MST 5:41 PM MST
Nautical Twilight 6:48 AM MST 6:16 PM MST
Astronomical Twilight 6:15 AM MST 6:50 PM MST
Moon No Moon Rise 11:32 AM MST (1/4)
Length of Visible Light 10h 18m
Length of Day
9h 15m
Waning Gibbous, 54% of the Moon is Illuminated
Jan 4
Waning Gibbous
Jan 4
Last Quarter
Jan 11
New
Jan 18
First Quarter
Jan 26
Full

Hourly Weather History & Observations

Time (MST) Temp. Windchill Dew Point Humidity Pressure Visibility Wind Dir Wind Speed Gust Speed Precip Events Conditions
12:03 AM -9.4 °F - -14.8 °F 77% 30.44 in 1.5 mi Calm Calm - N/A   Haze
12:06 AM -7.6 °F - -13.0 °F 77% 30.44 in 0.8 mi Calm Calm - N/A   Haze
12:17 AM -7.6 °F - -9.4 °F 92% 30.43 in 1.0 mi Calm Calm - N/A   Mist
12:31 AM -9.4 °F - -14.8 °F 77% 30.43 in 0.5 mi Calm Calm - N/A   Haze
12:48 AM -9.4 °F - -13.0 °F 84% 30.43 in 2.0 mi Calm Calm - N/A   Mostly Cloudy
12:49 AM -9.4 °F - -13.0 °F 84% 30.43 in 2.5 mi Calm Calm - N/A   Scattered Clouds
12:51 AM -9.9 °F - -14.1 °F 82% 30.74 in 2.0 mi Calm Calm - N/A   Scattered Clouds
12:54 AM -11.2 °F -20.6 °F -16.6 °F 77% 30.43 in 1.8 mi West 3.5 mph - N/A   Haze
1:11 AM -13.0 °F - -18.4 °F 77% 30.43 in 1.0 mi Calm Calm - N/A   Haze
1:36 AM -9.4 °F - -14.8 °F 77% 30.43 in 2.0 mi Calm Calm - N/A   Haze
1:39 AM -9.4 °F - -14.8 °F 77% 30.43 in 1.8 mi Calm Calm - N/A   Haze
1:51 AM -9.0 °F - -14.1 °F 79% 30.72 in 1.0 mi Calm Calm - N/A   Haze
2:02 AM -9.4 °F - -14.8 °F 77% 30.42 in 2.0 mi Calm Calm - N/A   Haze
2:07 AM -7.6 °F - -14.8 °F 71% 30.43 in 2.5 mi Calm Calm - N/A   Haze
2:14 AM -9.4 °F - -16.6 °F 71% 30.42 in 0.8 mi Calm Calm - N/A   Haze
2:30 AM -9.4 °F - -14.8 °F 77% 30.43 in 2.0 mi Calm Calm - N/A   Haze
2:51 AM -11.0 °F - -18.0 °F 71% 30.74 in 2.0 mi Calm Calm - N/A   Haze
3:18 AM -9.4 °F - -14.8 °F 77% 30.43 in 3.0 mi Calm Calm - N/A   Haze
3:36 AM -9.4 °F - -14.8 °F 77% 30.43 in 1.5 mi Calm Calm - N/A   Haze
3:42 AM -9.4 °F - -13.0 °F 84% 30.43 in 0.2 mi Calm Calm - N/A Fog Light Freezing Fog
3:51 AM -9.0 °F - -14.1 °F 79% 30.73 in 0.2 mi Calm Calm - N/A   Haze
3:57 AM -9.4 °F - -13.0 °F 84% 30.43 in 0.2 mi Calm Calm - N/A Fog Light Freezing Fog
4:05 AM -9.4 °F - -13.0 °F 84% 30.43 in 0.2 mi Calm Calm - N/A Fog Light Freezing Fog
4:21 AM -11.2 °F - -16.6 °F 77% 30.44 in 0.2 mi Calm Calm - N/A Fog Light Freezing Fog
4:40 AM -14.8 °F - -20.2 °F 77% 30.44 in 0.2 mi Calm Calm - N/A   Haze
4:51 AM -13.0 °F - -17.0 °F 82% 30.77 in 0.2 mi Calm Calm - N/A Fog Light Freezing Fog
5:01 AM -11.2 °F - -18.4 °F 70% 30.44 in 0.2 mi Calm Calm - N/A   Haze
5:08 AM -11.2 °F - -18.4 °F 70% 30.44 in 0.2 mi Calm Calm - N/A   Haze
5:36 AM -9.4 °F - -14.8 °F 77% 30.44 in 0.2 mi Calm Calm - 0.00 in   Haze
5:43 AM -9.4 °F - -14.8 °F 77% 30.44 in 0.2 mi Calm Calm - 0.00 in   Haze
5:51 AM -9.0 °F - -14.1 °F 79% 30.77 in 0.2 mi Calm Calm - 0.00 in   Haze
5:57 AM -9.4 °F - -14.8 °F 77% 30.44 in 0.2 mi Calm Calm - N/A   Haze
6:18 AM -9.4 °F - -13.0 °F 84% 30.44 in 0.2 mi Calm Calm - N/A Fog Light Freezing Fog
6:40 AM -7.6 °F - -14.8 °F 71% 30.44 in 1.5 mi Calm Calm - N/A   Haze
6:49 AM -7.6 °F - -14.8 °F 71% 30.44 in 2.0 mi Calm Calm - N/A   Haze
6:51 AM -8.0 °F - -14.1 °F 75% 30.76 in 2.0 mi Calm Calm - N/A   Haze
6:58 AM -7.6 °F - -14.8 °F 71% 30.43 in 1.8 mi Calm Calm - 0.00 in Snow Light Snow
7:12 AM -7.6 °F - -14.8 °F 71% 30.43 in 2.0 mi Calm Calm - 0.00 in Snow Light Snow
7:51 AM -13.0 °F -27.0 °F -18.9 °F 75% 30.78 in 1.8 mi NW 5.8 mph - 0.00 in   Haze
8:15 AM -11.2 °F -23.0 °F -18.4 °F 70% 30.43 in 2.5 mi North 4.6 mph - N/A   Haze
8:51 AM -7.1 °F -15.9 °F -13.0 °F 75% 30.75 in 3.0 mi SSE 3.5 mph - N/A   Haze
8:56 AM -5.8 °F -16.7 °F -11.2 °F 77% 30.43 in 3.0 mi SW 4.6 mph - N/A   Haze
9:40 AM -7.6 °F - -14.8 °F 71% 30.45 in 2.0 mi Calm Calm - N/A   Haze
9:45 AM -7.6 °F - -13.0 °F 77% 30.46 in 1.5 mi Calm Calm - N/A   Haze
9:51 AM -7.1 °F - -13.0 °F 75% 30.80 in 3.0 mi Calm Calm - N/A   Haze
9:57 AM -7.6 °F -18.8 °F -14.8 °F 71% 30.46 in 4.0 mi NE 4.6 mph - N/A   Haze
10:22 AM -2.2 °F -10.4 °F -11.2 °F 66% 30.46 in 4.0 mi ENE 3.5 mph - N/A   Haze
10:48 AM 1.4 °F - -5.8 °F 72% 30.46 in 4.0 mi Calm Calm - N/A   Haze
10:51 AM 1.0 °F - -6.0 °F 72% 30.76 in 3.0 mi Calm Calm - N/A   Haze
11:51 AM -0.0 °F -7.9 °F -8.0 °F 69% 30.76 in 4.0 mi WNW 3.5 mph - N/A   Haze
12:51 PM 1.0 °F -6.7 °F -6.0 °F 72% 30.72 in 5.0 mi NW 3.5 mph - N/A   Haze
1:51 PM 1.0 °F -6.7 °F -4.0 °F 79% 30.70 in 5.0 mi SW 3.5 mph - N/A   Haze
3:51 PM 1.9 °F -5.6 °F -4.0 °F 76% 30.70 in 5.0 mi North 3.5 mph - N/A   Haze
4:51 PM -0.9 °F - -6.0 °F 79% 30.71 in 4.0 mi Calm Calm - N/A   Haze
5:51 PM -2.9 °F -13.3 °F -8.0 °F 79% 30.71 in 5.0 mi North 4.6 mph - N/A   Haze
6:51 PM -2.9 °F - -8.0 °F 79% 30.71 in 5.0 mi Calm Calm - N/A   Haze
8:51 PM -6.0 °F -16.9 °F -9.9 °F 83% 30.74 in 3.0 mi WSW 4.6 mph - N/A   Clear
9:51 PM -6.0 °F - -11.9 °F 75% 30.74 in 4.0 mi Calm Calm - N/A   Haze
10:51 PM -6.0 °F - -11.0 °F 79% 30.70 in 4.0 mi Calm Calm - N/A   Haze
11:51 PM -8.0 °F - -13.0 °F 79% 30.74 in 5.0 mi Calm Calm - N/A   Haze